OBJECT P, 61907

Orbit data source: Space-Track

You're viewing an Uncataloged Satellite

Recently launched and/or uncataloged satellites may have evolving metadata. Metadata may include but not limited to: Owner, Maufacturer, Bus, Motor, and Mission.

OBJECT P, 61907 is a Chinese satellite in SSO that was launched on Mon, 11 Nov 2024 UTC via a LIJIAN-1 launch vehicle from the Jiuquan Satellite Launch Center, China (JSC). Unknown objects in Earth's orbit typically refer to objects detected orbiting the Earth but have not yet been identified or cataloged. These objects could be anything from previously untracked satellites, spent rocket stages, debris from satellite collisions, or even natural meteoroids temporarily captured by Earth's gravity.

Loading next visibility...
Identifier
61907, 2024-205P
Orbit
SSO
Country
Flag of CNCN / PRC
Related business
None
Manufacturer
Unknown
Mission
Operational Defense Technology
Bus & Motor
Unknown
Mass
Unknown
Launch date (UTC)
2024-11-11 (1 year ago)
Launch vehicle
LIJIAN-1
Launch site
Jiuquan Satellite Launch Center, China (JSC)
Object type
Unknown
Shape & HBR
Box + 2 Pan, 2.5 m
Radar Cross Section
4.795 m², Medium (>0.1 m² and < 1m²)

Expand to show TLE details & history
Last TLE update: 2 days ago

TLE from 2 days ago
0 OBJECT P
1 61907U 24205P   26032.92463271  .00001493  00000-0  77342-4 0  9997
2 61907  97.4277 108.2371 0013224 164.2753 195.8894 15.17655772 67826
Epoch: 2026-02-01T22:11Z
TLE epoch observation values (Epoch: 2026-02-01T22:11:28.266Z)
Latitude
-0.00001°
Longitude
3.24204°
Altitude
524.782 km
Speed
7.596 km/s
True Right ascension
07h 12m 56s
True Declination
0° 00' 00"
Sunlit
Object was in full shadow at epoch
Visualization orbit readout
Latitude
Unknown
Longitude
Unknown
Altitude
Unknown
Speed
Unknown
Apparent Right ascension
Unknown
Apparent Declination
Unknown
Sunlit
N/A
Visualization observer readout
Local Sidereal Time
06:11:46
Azimuth
Unknown
Elevation
Unknown
Doppler factor
Unknown
Orbital elements
Apogee altitude
519.006 km
Perigee altitude
500.789 km
Semi-major axis
6,888.035 km
Eccentricity
0.00132
Inclination
97.4277°
RAAN
108.2371°
Arg. of periapsis
164.2753°
True anomaly
195.84798°
Mean anomaly
195.8894°
Eccentric anomaly
195.86868°
Mean motion
3.79665 °/min
Orbital period
94.82 mins
BSTAR
0.000077342
Loading maneuver chart data...
Computing Atmospheric mass density...
Loading historical data...
Loading historical data...
Loading historical data...
Loading historical data...
Loading historical data...
Loading historical data...
Loading historical data...

Documentation

Showing up to 5 results
|